Location: Newark
(43.6583°N, 1.6617°E)
Time: 19:54:16
(UTC+00:00)

Vanguard 2 Rocket - Pass Details

Date: 25 August 2019
Orbit: 554 x 3327 km, 32.9° (Epoch: 15 September)

Event Time Altitude Azimuth Distance (km) Brightness Sun altitude
Exits shadow 01:10:29 31° 144° (SE) 3,203 9.3 -32.8°
Maximum altitude 01:10:32 31° 143° (SE) 3,208 9.3 -32.8°
Drops below altitude 10° 01:23:17 10° 91° (E) 5,643 11.2 -31.9°
Sets 01:29:07 0° 83° (E) 6,993 11.8 -31.4°
